Regional Weather Roundup
Issued by NWS

Home | Current Version | Previous Version | Graphics & Text | Print | Product List | Glossary On
Versions: 1 2 3 4 5 6 7 8 9 10 11 12 13 14 15 16 17 18 19 20 21 22 23 24 25 26 27 28 29 30 31 32 33 34 35 36 37 38 39 40 41 42 43 44 45 46 47 48 49 50
000
ASUS43 KBIS 041302
RWRND

NORTH DAKOTA REGIONAL WEATHER ROUNDUP
NATIONAL WEATHER SERVICE BISMARCK ND
800 AM CDT FRI SEP 04 2015

NOTE: "FAIR" INDICATES FEW OR NO CLOUDS BELOW 12,000 FEET WITH NO
SIGNIFICANT WEATHER AND/OR OBSTRUCTIONS TO VISIBILITY.


NDZ001>003-009>011-017-041400-
NORTHWEST NORTH DAKOTA

CITY           SKY/WX    TMP DP  RH WIND       PRES   REMARKS
WILLISTON      CLOUDY    65  55  70 S8G24     29.81R
MINOT          CLOUDY    67  62  84 NW15      29.78R
$$

NDZ018>021-031>035-040>046-041400-
SOUTHWEST NORTH DAKOTA

CITY           SKY/WX    TMP DP  RH WIND       PRES   REMARKS
BISMARCK       CLOUDY    71  70  96 E5        29.74R
DICKINSON      CLOUDY    64  59  83 NW8       29.80R THUNDER
GARRISON         N/A     68  64  87 VRB3      29.75R
HETTINGER ARPT CLOUDY    64  61  90 NW6       29.79S FOG
$$

NDZ004>008-012>016-024-026-027-054-041400-
NORTHEAST NORTH DAKOTA

CITY           SKY/WX    TMP DP  RH WIND       PRES   REMARKS
GRAND FORKS    MOSUNNY   73  70  90 SE10      29.78R
GRND FRKS AFB  PTSUNNY   73  71  91 S10       29.78R
DEVILS LAKE    CLOUDY    73  66  78 SE9       29.75S
$$

NDZ022-023-025-028>030-036>039-047>053-041400-
SOUTHEAST NORTH DAKOTA

CITY           SKY/WX    TMP DP  RH WIND       PRES   REMARKS
FARGO          MOSUNNY   75  71  87 SE13      29.76S
JAMESTOWN      CLOUDY    74  72  93 SE10      29.76R FOG
$$



USA.gov is the U.S. government's official web portal to all federal, state and local government web resources and services.